{"data":{"norad_id":47228,"epoch":"2026-05-25T04:46:50.409120Z","epoch_age_seconds":72020,"freshness":"FRESH","line1":"1 47228U 20091B   26145.19919455  .00000103  00000+0  67073-3 0  9995","line2":"2 47228  82.4959 315.4506 0013876 243.1684 116.7977 12.42885687248215","mean_motion":12.42885687,"eccentricity":0.0013876,"inclination_deg":82.4959,"raan_deg":315.4506,"arg_perigee_deg":243.1684,"mean_anomaly_deg":116.7977,"bstar":0.00067073,"rev_number":24821,"period_min":115.85940807443,"perigee_km":1483.4701492396,"apogee_km":1505.3179974744,"semimajor_km":7872.531073357,"source":"CELESTRAK","updated_at":"2026-05-25T13:37:56.398809Z"}}